Home > Weather > Hamilton > Past weeks

Flag for New Zealand Weather for the Past 2 Weeks in Hamilton, New Zealand

Now
66 °F

Scattered clouds.


Feels Like: 66 °F
Forecast: 48 / 69 °F
Wind: 6 mph from Southwest

Location: Auckland Airport

Current Time: Apr 30, 2016 at 1:59:13 PM

Latest Report: Apr 30, 2016 at 1:00 PM


Visibility: N/A

Pressure: 30.30 "Hg

Humidity: 60%

Dew Point: 52 °F

Location of HamiltonLocation

Historic Weather in Hamilton — Graph

°F

Hamilton Temperature Yesterday

Maximum temperature yesterday: 64 °F (at 10:00 AM)
Minimum temperature yesterday: 61 °F (at 12:00 AM)
Average temperature yesterday: 62 °F

High & Low Weather Summary for the Past Weeks

 TemperatureHumidityPressure
High72 °F (Apr 22, 3:00 PM)100% (Apr 17, 2:30 PM)30.42 "Hg (Apr 17, 2:30 PM)
Low52 °F (Apr 23, 6:30 AM)47% (Apr 22, 3:00 PM)29.86 "Hg (Apr 17, 5:30 PM)
Average62 °F78%30.19 "Hg
* Reported Apr 15 12:00 Noon — Apr 30 12:30 PM, Hamilton, Weather by CustomWeather, © 2016

Note: Actual official high and low records may vary slightly from our data, if they occured in-between our weather recording intervals... More about our weather records

Advertising

Hamilton Weather History for the Previous 24 Hours

Scroll right to see more
 ConditionsComfort  
Time TempWeatherWind HumidityBarometerVisibility
12:30 PM
Sat, Apr 30
66 °FPartly sunny.5 mph60%30.30 "HgN/A
11:30 AM66 °FOvercast.5 mph56%30.33 "HgN/A
11:00 AM66 °FPartly sunny.6 mph64%30.33 "HgN/A
10:30 AM64 °FOvercast.3 mph64%30.33 "HgN/A
10:00 AM63 °FOvercast.5 mph68%30.33 "HgN/A
9:30 AM63 °FOvercast.3 mph73%30.33 "HgN/A
9:00 AM63 °FOvercast.3 mph73%30.33 "HgN/A
8:30 AM63 °FOvercast.8 mph68%30.33 "HgN/A
8:00 AM63 °FPartly sunny.9 mph73%30.30 "HgN/A
7:30 AM61 °FOvercast.7 mph77%30.30 "HgN/A
7:00 AM61 °FOvercast.8 mph72%30.30 "HgN/A
6:30 AM63 °FOvercast.9 mph73%30.27 "HgN/A
6:00 AM63 °FOvercast.8 mph68%30.27 "HgN/A
5:30 AM63 °FOvercast.9 mph68%30.27 "HgN/A
5:00 AM63 °FOvercast.8 mph73%30.27 "HgN/A
4:30 AM63 °FOvercast.10 mph73%30.27 "HgN/A
4:00 AM63 °FOvercast.9 mph73%30.27 "HgN/A
3:30 AM63 °FOvercast.10 mph73%30.27 "HgN/A
3:00 AM63 °FOvercast.13 mph68%30.27 "HgN/A
2:30 AM63 °FOvercast.12 mph73%30.27 "HgN/A
2:00 AM63 °FOvercast.14 mph68%30.27 "HgN/A
1:30 AM63 °FOvercast.12 mph68%30.30 "HgN/A
1:00 AM63 °FOvercast.13 mph68%30.30 "HgN/A
12:30 AM63 °FOvercast.15 mph64%30.30 "HgN/A
12:00 AM61 °FOvercast.12 mph72%30.30 "HgN/A
11:30 PM
Fri, Apr 29
61 °FOvercast.16 mph68%30.30 "HgN/A
11:00 PM61 °FOvercast.14 mph72%30.30 "HgN/A
10:30 PM61 °FOvercast.12 mph72%30.30 "HgN/A
10:00 PM61 °FOvercast.9 mph72%30.30 "HgN/A
9:30 PM63 °FOvercast.13 mph64%30.30 "HgN/A
9:00 PM61 °FOvercast.13 mph72%30.30 "HgN/A
8:00 PM63 °FOvercast.14 mph68%30.30 "HgN/A
7:30 PM63 °FOvercast.12 mph68%30.30 "HgN/A
7:00 PM63 °FOvercast.13 mph68%30.30 "HgN/A
6:30 PM63 °FOvercast.12 mph68%30.30 "HgN/A
6:00 PM63 °FOvercast.14 mph68%30.30 "HgN/A
4:30 PM63 °FOvercast.13 mph68%30.30 "HgN/A
4:00 PM64 °FOvercast.13 mph64%30.30 "HgN/A
3:30 PM64 °FOvercast.13 mph64%30.33 "HgN/A
2:30 PM64 °FOvercast.14 mph64%30.33 "HgN/A
1:30 PM64 °FOvercast.14 mph68%30.33 "HgN/A
1:00 PM64 °FOvercast.14 mph68%30.36 "HgN/A
Weather by CustomWeather, © 2016

See weather overviewHow to use our weather pages